GTI3015 KLAL-KCVG

Flight info

Callsign GTI3015
Flight time N/A
Altitude 30000
Route NITTS BRUTS Q118 THRSR/N0468F290 VXV JAKIE7
Aircraft B738/M-SDE2E3FGHIRWXY/LB1

Departure

Time 2026-05-05 08:21
Airport Lakeland Linder International Airport (KLAL)

Arrival

Time N/A
Airport Cincinnati Northern Kentucky International Airport (KCVG)
Time Latitude Longitude Altitude Speed Heading
2026-05-05 08:13 27.98843 -82.01664 149 ft 8 kts 45°
2026-05-05 08:13 27.98882 -82.01620 148 ft 8 kts 45°
2026-05-05 08:13 27.98924 -82.01573 146 ft 9 kts 45°
2026-05-05 08:14 27.98967 -82.01525 146 ft 9 kts 45°
2026-05-05 08:14 27.99015 -82.01490 146 ft 8 kts
2026-05-05 08:14 27.99044 -82.01520 145 ft 0 kts 306°
2026-05-05 08:14 27.99044 -82.01545 145 ft 6 kts 264°
2026-05-05 08:15 27.99039 -82.01597 145 ft 8 kts 264°
2026-05-05 08:15 27.99035 -82.01664 145 ft 9 kts 270°
2026-05-05 08:15 27.99036 -82.01736 146 ft 10 kts 270°
2026-05-05 08:15 27.99036 -82.01819 146 ft 11 kts 270°
2026-05-05 08:16 27.99035 -82.01906 146 ft 14 kts 269°
2026-05-05 08:16 27.99036 -82.02078 145 ft 29 kts 268°
2026-05-05 08:16 27.99032 -82.02329 146 ft 35 kts 271°
2026-05-05 08:16 27.99039 -82.02627 144 ft 39 kts 269°
2026-05-05 08:17 27.99037 -82.02928 143 ft 37 kts 269°
2026-05-05 08:17 27.99037 -82.03177 140 ft 26 kts 271°
2026-05-05 08:17 27.99036 -82.03276 140 ft 8 kts 268°
2026-05-05 08:17 27.99021 -82.03335 140 ft 6 kts 236°
2026-05-05 08:18 27.99018 -82.03340 141 ft 0 kts 234°
2026-05-05 08:19 27.99014 -82.03345 141 ft 6 kts 234°
2026-05-05 08:19 27.98947 -82.03365 142 ft 11 kts 159°
2026-05-05 08:20 27.98925 -82.03318 142 ft 0 kts 89°
2026-05-05 08:20 27.98925 -82.03302 142 ft 15 kts 89°
2026-05-05 08:20 27.98929 -82.02876 143 ft 91 kts 89°
2026-05-05 08:20 27.98920 -82.01904 152 ft 153 kts 91°
2026-05-05 08:21 27.98932 -82.00641 638 ft 170 kts 87°
2026-05-05 08:21 27.99022 -81.99270 1382 ft 175 kts 85°
2026-05-05 08:21 27.99110 -81.97974 2493 ft 154 kts 87°
2026-05-05 08:21 27.99210 -81.96833 3460 ft 138 kts 84°
2026-05-05 08:22 27.99323 -81.95791 4219 ft 130 kts 84°
2026-05-05 08:22 27.99442 -81.94656 4313 ft 173 kts 84°
2026-05-05 08:22 27.99771 -81.93187 4315 ft 213 kts 59°
2026-05-05 08:22 28.00957 -81.92140 4258 ft 227 kts 18°
2026-05-05 08:23 28.02531 -81.92229 4196 ft 234 kts 337°
2026-05-05 08:23 28.03897 -81.93223 4186 ft 235 kts 325°
2026-05-05 08:23 28.05295 -81.94193 4198 ft 235 kts 334°
2026-05-05 08:23 28.06766 -81.95017 4199 ft 236 kts 336°
2026-05-05 08:24 28.08242 -81.95814 4193 ft 234 kts 336°
2026-05-05 08:24 28.09707 -81.96606 4189 ft 232 kts 336°
2026-05-05 08:24 28.11153 -81.97393 4185 ft 229 kts 336°
2026-05-05 08:24 28.12567 -81.98166 4187 ft 228 kts 336°
2026-05-05 08:25 28.13989 -81.98948 4187 ft 226 kts 336°
2026-05-05 08:25 28.15407 -81.99732 4196 ft 229 kts 336°
2026-05-05 08:25 28.16877 -82.00545 4225 ft 248 kts 335°
2026-05-05 08:25 28.18524 -82.01457 4234 ft 273 kts 335°
2026-05-05 08:26 28.20246 -82.02416 4212 ft 277 kts 335°
2026-05-05 08:26 28.21973 -82.03384 4196 ft 276 kts 335°
2026-05-05 08:26 28.23692 -82.04348 4183 ft 275 kts 335°
2026-05-05 08:26 28.25401 -82.05306 4188 ft 273 kts 335°
2026-05-05 08:27 28.27105 -82.06261 4193 ft 272 kts 335°
2026-05-05 08:27 28.28802 -82.07212 4194 ft 272 kts 335°
2026-05-05 08:27 28.30500 -82.08166 4200 ft 272 kts 335°
2026-05-05 08:27 28.32204 -82.09124 4206 ft 273 kts 335°
2026-05-05 08:28 28.33909 -82.10083 4205 ft 275 kts 335°
2026-05-05 08:28 28.35628 -82.11049 4206 ft 276 kts 335°
2026-05-05 08:28 28.37352 -82.12019 4206 ft 277 kts 335°
2026-05-05 08:28 28.39077 -82.12991 4201 ft 277 kts 335°
2026-05-05 08:29 28.40783 -82.13952 4201 ft 277 kts 335°
2026-05-05 08:29 28.42511 -82.14927 4204 ft 278 kts 335°
2026-05-05 08:29 28.44243 -82.15903 4205 ft 278 kts 335°
2026-05-05 08:30 28.47694 -82.17853 4190 ft 276 kts 335°
2026-05-05 08:30 28.49412 -82.18822 4196 ft 275 kts 335°
2026-05-05 08:30 28.51125 -82.19788 4202 ft 275 kts 335°
2026-05-05 08:30 28.52835 -82.20754 4201 ft 274 kts 335°
2026-05-05 08:31 28.54550 -82.21722 4203 ft 275 kts 335°
2026-05-05 08:31 28.56259 -82.22688 4205 ft 275 kts 335°
2026-05-05 08:31 28.57973 -82.23658 4202 ft 275 kts 335°
2026-05-05 08:31 28.59687 -82.24637 4201 ft 276 kts 334°
2026-05-05 08:32 28.61342 -82.25694 4201 ft 277 kts 329°
2026-05-05 08:32 28.62928 -82.26947 4195 ft 278 kts 323°
2026-05-05 08:32 28.64300 -82.28016 4195 ft 277 kts 333°
2026-05-05 08:32 28.65864 -82.28858 4206 ft 276 kts 338°
2026-05-05 08:33 28.67638 -82.29709 4201 ft 276 kts 338°
2026-05-05 08:33 28.69407 -82.30565 4213 ft 276 kts 338°
2026-05-05 08:33 28.71163 -82.31448 4212 ft 276 kts 337°
2026-05-05 08:33 28.72919 -82.32354 4208 ft 277 kts 336°
2026-05-05 08:34 28.74668 -82.33280 4204 ft 278 kts 336°
2026-05-05 08:34 28.76403 -82.34217 4382 ft 269 kts 335°
2026-05-05 08:34 28.78075 -82.35134 5041 ft 276 kts 335°
2026-05-05 08:34 28.79915 -82.36152 4294 ft 306 kts 334°
2026-05-05 08:35 28.81768 -82.37189 4707 ft 266 kts 334°
2026-05-05 08:35 28.81838 -82.37228 4771 ft 263 kts 334°